DW9729 Crofton MD US current weather conditions

sailwx.info

Wind from 019 at 0 knots gusting 3

Air temperature 20.0° C
Dewpoint 13.7° C

Last reported at 2020-Oct-01 14:45 UTC.
Time now 2020-Oct-01 15:43 UTC

Location: N 39°01' W 076°42'.
View on Google Maps.

See reports from other nearby stations

  
Tides and Currents Weather Stations Pressure Air Temp Water Temp Dewpoint Dewpoint Depression Visibility Wind Speed Wind Dir Waves Ship Positions
date/time (UTC)wind fromknots sea level pressurealtimeterstation pressurevisibilityair tempwater tempwave heightnotes
2020-Oct-01 14:45 019 0 gusting 3 20.0
2020-Oct-01 14:16 003 1 gusting 4 19.4
2020-Oct-01 13:45 003 17.2
2020-Oct-01 13:15 190 15.6
2020-Oct-01 12:47 186 14.4
2020-Oct-01 12:16 188 13.9
2020-Oct-01 11:45 188 13.3
2020-Oct-01 11:16 188 12.2
2020-Oct-01 11:01 188 12.2
2020-Oct-01 10:46 188 12.2
2020-Oct-01 10:32 188 12.2
2020-Oct-01 10:16 188 12.8
2020-Oct-01 10:00 188 12.8
2020-Oct-01 09:46 188 12.8
2020-Oct-01 09:30 188 12.8
2020-Oct-01 09:16 188 12.8
2020-Oct-01 09:00 188 12.8
2020-Oct-01 08:45 188 13.3
2020-Oct-01 08:30 188 13.3
2020-Oct-01 08:15 188 13.3
2020-Oct-01 08:01 188 13.3
2020-Oct-01 07:45 188 13.9
2020-Oct-01 07:30 188 13.9
2020-Oct-01 07:16 175 13.9
2020-Oct-01 07:00 184 13.9
2020-Oct-01 06:45 184 13.9
2020-Oct-01 06:31 184 13.9
2020-Oct-01 06:15 184 13.9
2020-Oct-01 06:01 184 13.9
2020-Oct-01 05:45 184 13.9
2020-Oct-01 05:31 180 13.9
2020-Oct-01 05:15 180 13.9
2020-Oct-01 05:00 180 13.9
2020-Oct-01 04:45 180 13.9
2020-Oct-01 04:30 180 13.9
2020-Oct-01 04:15 180 14.4
2020-Oct-01 04:00 180 14.4
2020-Oct-01 03:45 180 15.0
2020-Oct-01 03:30 180 15.0
2020-Oct-01 03:17 194 15.0
2020-Oct-01 03:01 205 15.0
2020-Oct-01 02:46 213 15.6
2020-Oct-01 02:32 181 15.6
2020-Oct-01 02:16 206 15.6
2020-Oct-01 02:01 182 15.6
2020-Oct-01 01:46 191 15.6
2020-Oct-01 01:31 192 15.6
2020-Oct-01 01:15 187 15.6
2020-Oct-01 00:45 171 16.1
2020-Oct-01 00:16 179 16.7
2020-Sep-30 23:46 152 17.2
2020-Sep-30 22:46 179 18.3
2020-Sep-30 22:16 186 0 gusting 6 20.0
2020-Sep-30 21:45 190 1 gusting 8 20.6
2020-Sep-30 21:16 053 1 gusting 9 21.7
2020-Sep-30 20:17 080 1 gusting 9 22.2
2020-Sep-30 19:45 209 3 gusting 12 21.7
2020-Sep-30 19:16 188 1 gusting 5 21.7
2020-Sep-30 18:46 190 3 gusting 12 21.7
2020-Sep-30 18:16 350 0 gusting 7 22.2
2020-Sep-30 17:45 040 0 gusting 7 21.1
2020-Sep-30 17:17 354 2 gusting 6 20.0
2020-Sep-30 16:46 007 3 gusting 11 19.4
2020-Sep-30 16:16 167 2 gusting 6 19.4
2020-Sep-30 15:46 162 1 gusting 6 18.9
2020-Sep-30 15:15 360 2 gusting 9 17.8
2020-Sep-30 14:46 294 2 gusting 10 17.2
2020-Sep-30 14:16 013 0 gusting 5 16.1
2020-Sep-30 13:46 348 0 gusting 4 15.0
2020-Sep-30 13:15 152 13.9
2020-Sep-30 12:45 354 13.3
2020-Sep-30 12:31 004 0 gusting 5 13.3
2020-Sep-30 12:15 171 13.3
2020-Sep-30 12:01 192 0 gusting 6 12.8
2020-Sep-30 11:45 337 12.8
2020-Sep-30 11:30 030 12.8
2020-Sep-30 11:15 030 12.8
2020-Sep-30 11:00 139 13.3
2020-Sep-30 10:45 175 13.3
2020-Sep-30 10:30 182 13.3
2020-Sep-30 10:15 011 13.3
2020-Sep-30 10:00 244 0 gusting 2 13.3
2020-Sep-30 09:45 006 13.3
2020-Sep-30 09:30 344 13.3
2020-Sep-30 09:15 217 13.3
2020-Sep-30 09:01 007 0 gusting 5 13.3
2020-Sep-30 08:46 347 0 gusting 4 13.3
2020-Sep-30 08:31 135 13.3
2020-Sep-30 08:16 335 1 gusting 4 13.3
2020-Sep-30 08:01 001 2 gusting 9 13.3
2020-Sep-30 07:46 347 2 gusting 6 13.3
2020-Sep-30 07:32 353 0 gusting 6 13.3
2020-Sep-30 07:17 357 0 gusting 3 13.3
2020-Sep-30 07:02 011 0 gusting 3 13.9
2020-Sep-30 06:48 204 13.9
2020-Sep-30 06:32 329 13.9
2020-Sep-30 06:16 329 13.9
2020-Sep-30 06:01 001 13.3
2020-Sep-30 05:46 354 13.3
2020-Sep-30 05:31 354 13.3
2020-Sep-30 05:16 352 13.3
2020-Sep-30 05:01 343 1 gusting 5 13.3
2020-Sep-30 04:46 355 13.9
2020-Sep-30 04:31 014 0 gusting 5 13.9
2020-Sep-30 04:15 001 1 gusting 7 13.9
2020-Sep-30 04:01 028 13.9
2020-Sep-30 03:45 343 0 gusting 4 13.9
2020-Sep-30 03:30 025 0 gusting 5 14.4
2020-Sep-30 03:15 360 14.4
2020-Sep-30 03:00 026 2 gusting 7 14.4
2020-Sep-30 02:45 026 0 gusting 5 15.0
2020-Sep-30 02:30 017 15.6
2020-Sep-30 02:15 017 0 gusting 7 16.1
2020-Sep-30 02:00 359 2 gusting 7 16.1
2020-Sep-30 01:48 006 2 gusting 5 16.7
2020-Sep-30 01:31 309 16.7
2020-Sep-30 01:16 008 16.7
2020-Sep-30 01:01 007 17.2
2020-Sep-30 00:47 015 0 gusting 8 17.2
2020-Sep-30 00:15 309 0 gusting 6 17.8
2020-Sep-29 23:45 008 1 gusting 6 19.4
2020-Sep-29 23:17 340 20.6
2020-Sep-29 22:45 019 0 gusting 8 22.2
2020-Sep-29 22:16 215 0 gusting 5 23.9
2020-Sep-29 21:45 209 0 gusting 3 24.4
2020-Sep-29 21:16 209 24.4
2020-Sep-29 20:46 203 0 gusting 3 25.0
2020-Sep-29 20:16 250 25.6
2020-Sep-29 19:45 202 1 gusting 6 25.0
2020-Sep-29 19:17 217 1 gusting 5 26.1
2020-Sep-29 18:45 187 26.7
2020-Sep-29 18:16 160 26.7
2020-Sep-29 17:46 029 25.6
2020-Sep-29 17:15 194 25.6
2020-Sep-29 16:45 185 25.6
2020-Sep-29 16:17 189 0 gusting 6 25.0
2020-Sep-29 15:46 204 0 gusting 4 25.0
2020-Sep-29 15:16 179 23.9